Weather History for Pensacola NAS, FL

Change the Weather History Date:

Thursday, April 17, 2014

  Actual Average Record
Temperature  
Mean Temperature 60 °F -  
Max Temperature 72 °F 74 °F 82 °F (2002)
Min Temperature 48 °F 56 °F 43 °F (1999)
Degree Days  
Heating Degree Days 6    
Growing Degree Days 10 (Base 50)    
Moisture  
Dew Point 56 °F    
Average Humidity 80    
Maximum Humidity 97    
Minimum Humidity 57    
Precipitation  
Precipitation 0.01 in - - ()
Sea Level Pressure  
Sea Level Pressure 30.18 in    
Wind  
Wind Speed 10 mph (ENE)    
Max Wind Speed 18 mph    
Max Gust Speed 25 mph    
Visibility 8 miles    
Events Rain , Thunderstorm    
Averages and records for this station are not official NWS values.
T = Trace of Precipitation, MM = Missing Value Source: NWS Daily Summary

Daily Weather History Graph

Daily Weather History Graph

Search for Another Location

Airport:

Trip Planner

Search our weather history database for the weather conditions in past years. The results will help you decide how hot, cold, wet, or windy it might be!

Date:

Astronomy

Apr. 17, 2014 Rise Set
Actual Time 6:19 AM CDT 7:18 PM CDT
Civil Twilight 5:55 AM CDT 7:42 PM CDT
Nautical Twilight 5:25 AM CDT 8:12 PM CDT
Astronomical Twilight 4:55 AM CDT 8:42 PM CDT
Moon 9:55 PM CDT (4/17) 7:58 AM CDT (4/17)
Length of Visible Light 13h 47m
Length of Day
12h 58m
Waning Gibbous, 93% of the Moon is Illuminated
Apr 17
Waning Gibbous
Apr 22
Last Quarter
Apr 29
New
May 6
First Quarter
May 14
Full

Hourly Weather History & Observations

Time (CDT) Temp. Dew Point Humidity Pressure Visibility Wind Dir Wind Speed Gust Speed Precip Events Conditions
12:56 AM 48.0 °F 46.9 °F 96% 30.17 in 10.0 mi Calm Calm - N/A   Clear
1:56 AM 57.0 °F 51.1 °F 81% 30.16 in 10.0 mi East 10.4 mph - N/A   Partly Cloudy
2:33 AM 57.9 °F 53.1 °F 84% 30.15 in 10.0 mi East 9.2 mph - N/A   Mostly Cloudy
2:56 AM 60.1 °F 53.1 °F 78% 30.15 in 10.0 mi ESE 13.8 mph 25.3 mph N/A   Mostly Cloudy
3:45 AM 60.1 °F 55.0 °F 83% 30.15 in 10.0 mi ENE 9.2 mph 24.2 mph N/A   Mostly Cloudy
3:56 AM 59.0 °F 54.0 °F 83% 30.16 in 10.0 mi ENE 13.8 mph - N/A   Overcast
4:56 AM 57.9 °F 53.1 °F 84% 30.16 in 10.0 mi ENE 18.4 mph 23.0 mph N/A   Overcast
5:14 AM 57.9 °F 53.1 °F 84% 30.16 in 10.0 mi ENE 15.0 mph - N/A   Overcast
5:56 AM 57.9 °F 53.1 °F 84% 30.18 in 10.0 mi ENE 16.1 mph 24.2 mph N/A   Mostly Cloudy
6:31 AM 57.9 °F 53.1 °F 84% 30.18 in 10.0 mi East 18.4 mph 24.2 mph N/A   Overcast
6:56 AM 57.9 °F 53.1 °F 84% 30.19 in 10.0 mi ENE 17.3 mph 25.3 mph N/A   Mostly Cloudy
7:56 AM 57.9 °F 52.0 °F 81% 30.22 in 10.0 mi ENE 18.4 mph - N/A   Mostly Cloudy
8:56 AM 59.0 °F 52.0 °F 78% 30.24 in 10.0 mi ENE 13.8 mph 21.9 mph N/A   Mostly Cloudy
9:56 AM 62.1 °F 53.1 °F 72% 30.25 in 10.0 mi East 15.0 mph 20.7 mph N/A   Mostly Cloudy
10:46 AM 64.9 °F 54.0 °F 68% 30.24 in 10.0 mi East 16.1 mph 23.0 mph N/A   Mostly Cloudy
10:56 AM 64.0 °F 53.1 °F 67% 30.25 in 10.0 mi ENE 16.1 mph - N/A   Mostly Cloudy
11:56 AM 66.0 °F 54.0 °F 65% 30.22 in 10.0 mi East 11.5 mph - N/A   Mostly Cloudy
12:56 PM 70.0 °F 55.0 °F 59% 30.21 in 10.0 mi NE 12.7 mph - N/A   Mostly Cloudy
1:56 PM 71.1 °F 55.0 °F 57% 30.18 in 10.0 mi East 15.0 mph - N/A   Mostly Cloudy
2:56 PM 70.0 °F 55.0 °F 59% 30.16 in 10.0 mi East 10.4 mph - N/A   Overcast
3:56 PM 69.1 °F 57.0 °F 65% 30.14 in 10.0 mi ENE 4.6 mph - N/A   Overcast
4:56 PM 68.0 °F 59.0 °F 73% 30.16 in 9.0 mi SE 5.8 mph - 0.00 in Rain Light Rain
5:56 PM 68.0 °F 60.1 °F 76% 30.14 in 10.0 mi ENE 3.5 mph - 0.00 in   Overcast
6:56 PM 69.1 °F 57.0 °F 65% 30.13 in 10.0 mi NE 9.2 mph - N/A   Overcast
7:56 PM 68.0 °F 57.0 °F 68% 30.14 in 10.0 mi NE 11.5 mph - 0.01 in   Overcast
8:35 PM 66.0 °F 57.9 °F 75% 30.15 in 8.0 mi NE 9.2 mph - 0.00 in Rain Light Rain
8:49 PM 66.0 °F 57.9 °F 75% 30.16 in 10.0 mi NE 8.1 mph - 0.00 in Rain , Thunderstorm Light Thunderstorms and Rain
8:56 PM 64.9 °F 57.9 °F 78% 30.16 in 10.0 mi NE 11.5 mph - 0.00 in Rain , Thunderstorm Light Thunderstorms and Rain
9:16 PM 62.1 °F 60.1 °F 93% 30.18 in 3.0 mi NNE 8.1 mph - N/A Rain , Thunderstorm Heavy Thunderstorms and Rain
9:47 PM 61.0 °F 60.1 °F 97% 30.18 in 3.0 mi NNE 11.5 mph - N/A Rain Rain
9:56 PM 61.0 °F 60.1 °F 97% 30.18 in 3.0 mi NNE 13.8 mph - N/A Rain Rain
10:33 PM 61.0 °F 60.1 °F 97% 30.17 in 2.0 mi NE 8.1 mph - N/A Rain Heavy Rain
10:47 PM 61.0 °F 60.1 °F 97% 30.17 in 4.0 mi NE 6.9 mph - N/A Rain Rain
10:56 PM 61.0 °F 60.1 °F 97% 30.18 in 4.0 mi NE 10.4 mph - N/A Rain Heavy Rain
11:43 PM 61.0 °F 60.1 °F 97% 30.16 in 5.0 mi NE 12.7 mph - N/A Rain Rain
11:56 PM 61.0 °F 60.1 °F 97% 30.17 in 6.0 mi NE 10.4 mph - N/A Rain Rain